Live Position
Loading 3D Globe...
About Lemur-2-PeterG
Group: 3 satellites
Description loading...
Upcoming Passes
Passes for default location (London). Set your location on the main map for personalized predictions.
Altitude History
Loading altitude history...
No altitude history available
Two-Line Element Set
1 42841U 17042S 26106.07406937 .00012725 00000-0 42154-3 0 9990
2 42841 97.3986 291.1273 0004190 185.8613 174.2580 15.31422039478921
Epoch: Apr 16, 2026 •
Age: 19 hours
Current Status
Altitude 488.3 km
Velocity 7.62 km/s
Sub-Earth Point -38.31°S,
146.35°E
Launch Date Jul 14, 2017
Age 8.7 years
Type other
Technical Details
Classification Payload
Mass 4.00 kg
Dry Mass 4.00 kg
Total Mass 4.00 kg
Length 0.30 m
Diameter 0.10 m
Span 0.30 m
Shape Box
Manufacturer SPIREG
Bus Type Cubesat 3U
Phase Status In Orbit
Owner/State SPIRE/US
Most Searched
Loading...